Nome, AK

9:59 AM AKDT on October 23, 2017 (GMT -0800)
Nome

Weather History for PAOM - May, 2015

Change the Weather History Date:

Thursday, May 21, 2015

  Actual Average Record
Temperature  
Mean Temperature 36 °F 39 °F  
Max Temperature 39 °F 46 °F 69 °F (2002)
Min Temperature 32 °F 33 °F 15 °F (1926)
Degree Days  
Heating Degree Days 29 26  
Month to date heating degree days 572 637  
Since 1 July heating degree days 11843 12947  
Cooling Degree Days 0 0  
Month to date cooling degree days 0 0  
Year to date cooling degree days 0 0  
Moisture  
Dew Point 35 °F    
Average Humidity 0    
Maximum Humidity 0    
Minimum Humidity 0    
Precipitation  
Precipitation T in 0.02 in 0.81 in (2013)
Month to date precipitation 1.26 0.58  
Year to date precipitation 4.21 3.86  
Snow  
Snow T in 0.10 in 4.20 in (2013)
Month to date snowfall T 2.0  
Since 1 July snowfall 59.7 75.1  
Snow Depth 0.00 in    
Sea Level Pressure  
Sea Level Pressure 29.92 in    
Wind  
Wind Speed 10 mph (South)    
Max Wind Speed 16 mph    
Max Gust Speed 19 mph    
Visibility 7 miles    
Events Fog , Rain , Snow    
T = Trace of Precipitation, MM = Missing Value Source: NWS Daily Summary

Daily Weather History Graph

Daily Weather History Graph

Search for Another Location

Airport or City:

Trip Planner

Search our weather history database for the weather conditions in past years. The results will help you decide how hot, cold, wet, or windy it might be!

Date:

Astronomy

May. 21, 2015 Rise Set
Actual Time 5:23 AM AKDT 12:36 AM AKDT
Civil Twilight 3:30 AM AKDT 2:26 AM AKDT
Nautical Twilight Sun does not rise Sun does not rise
Astronomical Twilight Sun does not rise Sun does not rise
Moon 9:23 AM AKDT (5/21) 2:43 AM AKDT (5/21)
Length of Visible Light 22h 55m
Length of Day
19h 13m
Waxing Crescent, 15% of the Moon is Illuminated
May 21
Waxing Crescent
May 25
First Quarter
Jun 2
Full
Jun 9
Last Quarter
Jun 16
New

Hourly Weather History & Observations

Time (AKDT) Temp. Windchill Dew Point Humidity Pressure Visibility Wind Dir Wind Speed Gust Speed Precip Events Conditions
12:44 AM 39.0 °F 31.0 °F 39.0 °F 100% 29.78 in 7.0 mi SE 13.8 mph - 0.00 in Rain Light Rain
12:51 AM 39.2 °F 32.5 °F 39.2 °F 100% 29.78 in 10.0 mi ESE 10.4 mph - 0.00 in   Overcast
12:53 AM 39.0 °F 32.3 °F 39.0 °F 100% 29.78 in 10.0 mi SE 10.4 mph - 0.00 in   Overcast
1:17 AM 37.9 °F 30.5 °F 37.9 °F 100% 29.78 in 10.0 mi ESE 11.5 mph - 0.00 in Rain Light Rain
1:53 AM 37.9 °F 29.6 °F 37.9 °F 100% 29.80 in 10.0 mi SE 13.8 mph - 0.00 in   Overcast
2:28 AM 39.0 °F 31.8 °F 39.0 °F 100% 29.80 in 10.0 mi ESE 11.5 mph - N/A   Overcast
2:53 AM 39.0 °F 32.3 °F 39.0 °F 100% 29.81 in 10.0 mi ESE 10.4 mph - N/A   Overcast
3:01 AM 39.0 °F 32.3 °F 39.0 °F 100% 29.80 in 10.0 mi ESE 10.4 mph - N/A   Overcast
3:38 AM 39.0 °F 31.0 °F 39.0 °F 100% 29.81 in 10.0 mi ESE 13.8 mph - N/A   Overcast
3:53 AM 39.0 °F 31.0 °F 39.0 °F 100% 29.81 in 10.0 mi ESE 13.8 mph - N/A   Overcast
4:53 AM 39.0 °F 31.4 °F 37.9 °F 96% 29.82 in 10.0 mi SE 12.7 mph - N/A   Overcast
5:53 AM 37.9 °F 30.0 °F 37.9 °F 100% 29.83 in 10.0 mi ESE 12.7 mph - N/A   Overcast
6:51 AM 37.4 °F 29.3 °F 37.4 °F 100% 29.84 in 10.0 mi SE 12.7 mph - N/A   Overcast
6:53 AM 37.9 °F 30.0 °F 37.9 °F 100% 29.84 in 10.0 mi SE 12.7 mph - N/A   Overcast
7:51 AM 37.4 °F 29.8 °F 37.4 °F 100% 29.86 in 10.0 mi SSE 11.5 mph - N/A   Overcast
7:53 AM 37.9 °F 30.9 °F 37.0 °F 97% 29.86 in 10.0 mi SSE 10.4 mph - N/A   Overcast
8:53 AM 37.0 °F 30.4 °F 37.0 °F 100% 29.88 in 10.0 mi SSE 9.2 mph - N/A   Overcast
9:40 AM 37.0 °F 29.3 °F 37.0 °F 100% 29.88 in 3.0 mi SSE 11.5 mph - N/A   Overcast
9:42 AM 37.0 °F 29.3 °F 37.0 °F 100% 29.88 in 2.0 mi SSE 11.5 mph - N/A   Overcast
9:45 AM 37.0 °F 29.3 °F 37.0 °F 100% 29.88 in 1.5 mi South 11.5 mph - N/A   Overcast
9:53 AM 37.0 °F 29.3 °F 37.0 °F 100% 29.88 in 1.8 mi South 11.5 mph - N/A   Overcast
9:55 AM 37.0 °F 29.3 °F 37.0 °F 100% 29.88 in 2.5 mi SSE 11.5 mph - N/A   Overcast
10:00 AM 36.0 °F 27.5 °F 36.0 °F 100% 29.88 in 6.0 mi South 12.7 mph - N/A   Overcast
10:53 AM 34.0 °F 26.0 °F 34.0 °F 100% 29.90 in 2.0 mi SSW 10.4 mph - N/A   Overcast
10:57 AM 34.0 °F 25.0 °F 34.0 °F 100% 29.90 in 0.5 mi SSW 12.7 mph - N/A Fog Fog
11:11 AM 34.0 °F 25.0 °F 34.0 °F 100% 29.91 in 1.2 mi South 12.7 mph - N/A   Overcast
11:15 AM 34.0 °F 25.0 °F 34.0 °F 100% 29.91 in 3.0 mi SSW 12.7 mph - N/A   Overcast
11:19 AM 33.1 °F 23.9 °F 33.1 °F 100% 29.91 in 4.0 mi South 12.7 mph - N/A   Overcast
11:24 AM 33.1 °F 24.9 °F 33.1 °F 100% 29.91 in 4.0 mi South 10.4 mph - 0.00 in Snow Light Snow
11:53 AM 33.1 °F 24.4 °F 33.1 °F 100% 29.91 in 5.0 mi South 11.5 mph - 0.00 in   Overcast
12:51 PM 33.8 °F 25.3 °F 33.8 °F 100% 29.94 in 2.5 mi South 11.5 mph - N/A   Overcast
12:53 PM 33.1 °F 23.9 °F 33.1 °F 100% 29.94 in 2.5 mi South 12.7 mph - N/A   Overcast
12:58 PM 33.1 °F 24.4 °F 33.1 °F 100% 29.94 in 3.0 mi South 11.5 mph - N/A   Overcast
1:53 PM 33.1 °F 24.4 °F 33.1 °F 100% 29.96 in 4.0 mi SSW 11.5 mph - 0.00 in Snow Light Snow
2:53 PM 33.1 °F 23.9 °F 33.1 °F 100% 29.99 in 10.0 mi SW 12.7 mph - 0.00 in   Overcast
3:53 PM 33.1 °F 25.5 °F 33.1 °F 100% 30.01 in 8.0 mi SW 9.2 mph - N/A   Overcast
4:53 PM 33.1 °F 26.1 °F 33.1 °F 100% 30.03 in 10.0 mi SW 8.1 mph - N/A   Overcast
5:53 PM 33.1 °F 24.4 °F 32.0 °F 96% 30.05 in 10.0 mi SSW 11.5 mph - N/A   Overcast
6:53 PM 33.1 °F 24.9 °F 33.1 °F 100% 30.07 in 10.0 mi SW 10.4 mph - N/A   Overcast
7:51 PM 33.8 °F 27.7 °F 33.8 °F 100% 30.08 in 10.0 mi SSW 6.9 mph - N/A   Mostly Cloudy
7:53 PM 34.0 °F 28.0 °F 33.1 °F 96% 30.09 in 10.0 mi SSW 6.9 mph - N/A   Mostly Cloudy
8:39 PM 35.1 °F 28.6 °F 32.0 °F 89% 30.09 in 10.0 mi South 8.1 mph - N/A   Scattered Clouds
8:53 PM 35.1 °F 29.3 °F 32.0 °F 89% 30.10 in 10.0 mi South 6.9 mph - N/A   Scattered Clouds
9:53 PM 35.1 °F 28.6 °F 30.9 °F 85% 30.11 in 10.0 mi SSW 8.1 mph - N/A   Partly Cloudy
10:53 PM 34.0 °F 27.2 °F 30.9 °F 89% 30.11 in 10.0 mi South 8.1 mph - N/A   Partly Cloudy
11:53 PM 34.0 °F 28.8 °F 30.0 °F 85% 30.12 in 10.0 mi South 5.8 mph - N/A   Partly Cloudy